Member area
Imprimable
Gerardmer, 18-19/06/2016, FRA - Trail de la Vallée des Lacs
List of reports > 85 km - Result
Search: Page: [1]
102 Entries
 
Complains are not accepted anymore. Results are final.
PlaceNrLicenceNameAgeNATTeamRealTimeTkmMoy.ScrCity
Vos photos gr?ce ? Sportograf1.202NOURRY Yann37FRALE PERRÉON9:06:079:06:076:26 9.341LE PERRÉON
Vos photos gr?ce ? Sportograf2.348VIARD Tony32FRADOMPAIRE9:16:079:16:076:33 9.172DOMPAIRE
Vos photos gr?ce ? Sportograf3.177LUSSIS Bernard37BELTAINTRUX9:58:199:58:207:03 8.524TAINTRUX
Vos photos gr?ce ? Sportograf4.89ROUAULT Samuel31FRABÉDÉE10:41:3710:41:377:33 7.958BÉDÉE
Vos photos gr?ce ? Sportograf5.339GROSSI Sébastien27FRACHANTRAINE10:51:2510:51:297:40 7.839CHANTRAINE
Vos photos gr?ce ? Sportograf6.3221754501PERRIN Erick32FRACOHM11:15:1111:15:117:57 7.5514LA BRESSE
Vos photos gr?ce ? Sportograf7.51637652JACQUOT Brice36FRAATHLE VOSGES11:22:5211:22:528:03 7.4715ANOULD
Vos photos gr?ce ? Sportograf8.155413342SOPHYS Romain36FRASUPER U11:28:3311:28:338:07 7.4116SAINTE-MENEHOULD
Vos photos gr?ce ? Sportograf9.2911819209MARTIN Samuel35FRARAACE11:28:3411:28:348:07 7.4117SAINTE-MENEHOULD
Vos photos gr?ce ? Sportograf10.56LEGROS Robin27FRASAINTE-BARBE11:34:5711:34:578:11 7.3418SAINTE-BARBE
Vos photos gr?ce ? Sportograf11.216OHL Arthur24FRATAINTRUX11:38:1111:38:118:13 7.3019SAINT-JORIOZ
Vos photos gr?ce ? Sportograf12.82COCHET Mickaël33FRALE DRENNEC11:51:5911:52:088:23 7.1621LE DRENNEC
Vos photos gr?ce ? Sportograf13.296MUCCIO Alexandre28FRACOLMAR11:56:1511:56:158:26 7.1222COLMAR
Vos photos gr?ce ? Sportograf14.50SYLVESTRE Gilles39FRAJORXEY12:04:4812:04:498:32 7.0425JORXEY
Vos photos gr?ce ? Sportograf15.211639043BIANCHI Benjamin34FRAGRAVITY RUNNING EXPERIENC12:05:1112:05:118:32 7.0326AILLY-SUR-NOYE
Vos photos gr?ce ? Sportograf16.249KISELAK Valentin26FRAOLIVET12:06:2412:06:418:33 7.0227OLIVET
Vos photos gr?ce ? Sportograf17.9GOTTO Samuel38FRACLAMART12:06:3512:06:418:33 7.0228CLAMART
Vos photos gr?ce ? Sportograf18.31735758GEOFFROY Julien38FRAATHLE VOSGES12:08:1712:08:278:35 7.0029VECOUX
Vos photos gr?ce ? Sportograf19.212MENIN Jonathan32FRATOURS12:11:4812:11:598:37 6.9731TOURS
Vos photos gr?ce ? Sportograf20.266CHOQUET-BOTELLA Alexandre36FRALE GRAND-BORNAND12:12:4412:12:468:38 6.9632LE GRAND-BORNAND
Vos photos gr?ce ? Sportograf21.288VOGT Marc33FRALAON12:26:3012:26:368:48 6.8343LAON
Vos photos gr?ce ? Sportograf22.130MUNAUT Jérémy39BELDURBUY12:26:4012:26:538:48 6.8344DURBUY
Vos photos gr?ce ? Sportograf23.196LAJOUX Morgan37FRAHINCKANGE12:27:2712:27:278:48 6.8245HINCKANGE
Vos photos gr?ce ? Sportograf24.347VILLIERE Nicolas35FRAÉPINAL12:32:5512:32:588:52 6.7749ÉPINAL
Vos photos gr?ce ? Sportograf25.35HEINRICH Ludovic36FRALOGELHEIM12:33:1212:33:318:52 6.7750LOGELHEIM
Vos photos gr?ce ? Sportograf26.274PERRIN Julien39FRAJE VOIS LA VIE EN VOSGES 12:34:0112:34:018:53 6.7651
Vos photos gr?ce ? Sportograf27.215FETET Paul29FRASAINT-JORIOZ12:41:5812:42:048:58 6.6953NEUILLY-PLAISANCE
Vos photos gr?ce ? Sportograf28.12MAIRE David36FRAGRANGES-NARBOZ12:54:0512:54:159:07 6.5957GRANGES-NARBOZ
Vos photos gr?ce ? Sportograf29.280124591STEMPFLE Raphael30FRATRAILLEUR'S12:54:4612:54:469:07 6.5858SAINT-DIÉ-DES-VOSGES
Vos photos gr?ce ? Sportograf30.290MICHEL Arnaud33FRASTRASBOURG12:55:1812:55:239:08 6.5859STRASBOURG
Vos photos gr?ce ? Sportograf31.316TAVARES David29FRAMONTBOZON12:59:1412:59:299:11 6.5460MONTBOZON
Vos photos gr?ce ? Sportograf32.152RUMLER Stéphane39FRAWOLXHEIM13:03:4013:03:459:14 6.5161WOLXHEIM
Vos photos gr?ce ? Sportograf33.333NOEL Grégory35FRAREMIREMONT13:05:0713:05:229:15 6.4962REMIREMONT
Vos photos gr?ce ? Sportograf34.161420030WILLOCQ Jean39FRAGRAVITY RUNNING EXPERIENC13:11:1513:11:159:19 6.4569AILLY-SUR-NOYE
Vos photos gr?ce ? Sportograf35.222DECKERS Erwin39NLDBILZEN13:24:4913:24:509:29 6.3477BILZEN
Vos photos gr?ce ? Sportograf36.223REMY Christophe32FRANANCY13:26:3513:26:389:30 6.3278NANCY
Vos photos gr?ce ? Sportograf37.213MOREAU Matthieu36FRABLOIS13:28:0813:28:109:31 6.3180BLOIS
Vos photos gr?ce ? Sportograf38.120CRISINEL Etienne29FRASEMÉCOURT13:28:4213:28:589:32 6.3081SEMÉCOURT
Vos photos gr?ce ? Sportograf39.283AMBERT Nicolas37FRARIEDISHEIM13:28:5713:29:109:32 6.3082RIEDISHEIM
Vos photos gr?ce ? Sportograf40.194DUPUIS Thomas32BELTHUIN13:34:0313:34:099:35 6.2684THUIN
Vos photos gr?ce ? Sportograf41.240A70121cTHOMAS Alexis29FRABRUYERES TRIATHLON13:45:0013:45:279:43 6.1894LÉPANGES-SUR-VOLOGNE
Vos photos gr?ce ? Sportograf42.236ROBIN Mickael38FRACHENEVIÈRES13:49:3513:49:419:46 6.1597CHENEVIÈRES
Vos photos gr?ce ? Sportograf43.336PARPON Jean-Samule35FRAÉPINAL13:59:4713:59:549:53 6.0799ÉPINAL
Vos photos gr?ce ? Sportograf44.332CARIOU Goulven30FRACOLMAR14:05:3414:05:579:58 6.03102COLMAR
Vos photos gr?ce ? Sportograf45.238DELJEIHIER David37FRAROSIÈRES-AUX-SALINES14:07:1714:07:239:59 6.02104ROSIÈRES-AUX-SALINES
Vos photos gr?ce ? Sportograf46.326VAUTHIER Jean-Charles38FRARUPT-SUR-MOSELLE14:12:1014:12:2310:02 5.98110RUPT-SUR-MOSELLE
Vos photos gr?ce ? Sportograf47.330TOUVERON Brice31FRAGUÉNANGE14:44:1514:44:2810:25 5.77131GUÉNANGE
Vos photos gr?ce ? Sportograf48.24169431ROBERT Matthieu38FRADASSAULT SPORTS SURESNES14:44:3214:44:5210:25 5.76132SURESNES
Vos photos gr?ce ? Sportograf49.231FAUST Eric37FRAMETZ14:44:4314:45:1310:25 5.76133METZ
Vos photos gr?ce ? Sportograf50.187GARNIER Ghislain35FRACOLOMBEY-LES-BELLES14:47:4214:48:0410:27 5.74137COLOMBEY-LES-BELLES
Vos photos gr?ce ? Sportograf51.69LE NOUAILLE Julien34FRALISIEUX14:48:3814:49:0210:28 5.74138LISIEUX
Vos photos gr?ce ? Sportograf52.1171730128LERAY Anthony34FRACOMBOURG TRAIL AVENTURE14:49:2514:49:4710:29 5.73139TRÉMEHEUC
Vos photos gr?ce ? Sportograf53.198GERARD Vincent33FRALA BRESSE14:50:5414:51:0310:29 5.72141LA BRESSE
Vos photos gr?ce ? Sportograf54.207BONNEFOY Marc39FRABERCHEM14:53:2614:53:3510:31 5.71142BERCHEM
Vos photos gr?ce ? Sportograf55.219PICH Jonathan28FRABOUSSE14:53:3914:53:4210:31 5.71143BOUSSE
Vos photos gr?ce ? Sportograf56.221GRUN Kevin28FRAGUÉNANGE14:53:4214:53:4510:31 5.71144GUÉNANGE
Vos photos gr?ce ? Sportograf57.371848068PENEL Vincent36FRACOS RENAULT LARDY14:57:2014:57:3110:34 5.68148CHEPTAINVILLE
Vos photos gr?ce ? Sportograf58.320VINCENT Sébastien35FRASAINT-ÉTIENNE-LÈS-REMIREM14:58:2814:59:0310:35 5.67150SAINT-ÉTIENNE-LÈS-REMIREMONT
Vos photos gr?ce ? Sportograf59.173BONNARD Grégory32FRAROCHESSON14:59:3014:59:3510:35 5.67153ROCHESSON
Vos photos gr?ce ? Sportograf60.277BELLANGER Joey25FRACHAMBÉRY15:01:5915:02:0310:37 5.65154CHAMBÉRY
Vos photos gr?ce ? Sportograf61.193RICOZZI Mallory32FRALACHY15:07:5115:08:1910:42 5.61161LACHY
Vos photos gr?ce ? Sportograf62.275FERRY Romain32FRALES FORGES15:20:4415:20:4810:50 5.54169LES FORGES
Vos photos gr?ce ? Sportograf63.321JULOU Sébastien30FRABOULOGNE-BILLANCOURT15:22:3715:22:3910:52 5.53173BOULOGNE-BILLANCOURT
Vos photos gr?ce ? Sportograf64.8VAVON Antoine33FRAMALAKOFF15:25:3515:25:4110:54 5.51177MALAKOFF
Vos photos gr?ce ? Sportograf65.42DORNIER Sébastien39FRASAINT-REMIMONT15:25:3815:25:5210:54 5.51178SAINT-REMIMONT
Vos photos gr?ce ? Sportograf66.114COMBE Renaud34FRASAINT-CYR-L'ÉCOLE15:28:5115:29:0910:56 5.49181SAINT-CYR-L'ÉCOLE
Vos photos gr?ce ? Sportograf67.83LECOMTE Florent33FRASAINTS15:28:5415:29:1010:56 5.49182SAINTS
Vos photos gr?ce ? Sportograf68.30BOURGEOIS Ludovic30FRAPALAISEAU15:40:4515:40:4811:05 5.42187PALAISEAU
Vos photos gr?ce ? Sportograf69.224BRUNELLE Dimitri37FRAABBEVILLE15:40:4715:40:4811:05 5.42188ABBEVILLE
Vos photos gr?ce ? Sportograf70.99COLIN Maxime33FRASAINT-ANDRÉ-LEZ-LILLE15:50:5815:51:0511:12 5.36195SAINT-ANDRÉ-LEZ-LILLE
Vos photos gr?ce ? Sportograf71.108SCHMIDT Pierre26FRAAULNOY-LEZ-VALENCIENNES15:50:5715:51:0511:12 5.36196AULNOY-LEZ-VALENCIENNES
Vos photos gr?ce ? Sportograf72.1251741722CONSEIL Guillaume34FRAUS JOIGNY15:51:2415:51:4711:12 5.36198VILLEMER
Vos photos gr?ce ? Sportograf73.136508726BOUTRON Nicolas35FRAUSJOIGNY15:51:2415:51:4711:12 5.36199SÉPEAUX
Vos photos gr?ce ? Sportograf74.57RIVAT Pierre27FRAPARIS15:55:5615:56:2011:16 5.33206PARIS
Vos photos gr?ce ? Sportograf75.195CHAUCHET Guillaume32FRANANCY15:58:2615:58:3111:17 5.32208NANCY
Vos photos gr?ce ? Sportograf76.681263065LE NOUAILLE Aurélien37FRASPORT AVENTURE16:18:2016:18:4411:31 5.21216BEUZEVILLE
Vos photos gr?ce ? Sportograf77.76RIEHL Philippe27FRASTRASBOURG16:20:2516:20:5311:33 5.20217STRASBOURG
Vos photos gr?ce ? Sportograf78.270FLEITH Daniel29FRACOLMAR16:22:5616:23:2211:35 5.19222COLMAR
Vos photos gr?ce ? Sportograf79.327TERVER Jean26FRATHIONVILLE16:33:2216:33:3611:42 5.13230THIONVILLE
Vos photos gr?ce ? Sportograf80.205ORTS Matthieu34FRAILLZACH16:48:0516:48:2911:52 5.06238ILLZACH
Vos photos gr?ce ? Sportograf81.334DIDIERJEAN Benjamin31FRAGIRECOURT-SUR-DURBION16:49:2416:49:4211:53 5.05239GIRECOURT-SUR-DURBION
Vos photos gr?ce ? Sportograf82.168BESSON Yann30FRASTRASBOURG16:51:3216:52:0011:55 5.04240STRASBOURG
Vos photos gr?ce ? Sportograf83.263FOUQUET Guillaume32FRAMESSEIN16:51:5916:52:1511:55 5.04241MESSEIN
Vos photos gr?ce ? Sportograf84.209LOUPS Mathieu27FRANANCY17:39:5717:40:2212:29 4.81254NANCY
Vos photos gr?ce ? Sportograf85.171LOUPS Baptiste36FRADEYCIMONT17:39:5717:40:2312:29 4.81255DEYCIMONT
Vos photos gr?ce ? Sportograf86.671250851DELILLE Thomas36FRADASSAULT SPORTS SURESNES18:01:0418:01:2412:44 4.72263COURBEVOIE
Vos photos gr?ce ? Sportograf87.200PONY Maximin25FRAHAGUENAU18:31:4818:32:1513:06 4.59268HAGUENAU
Vos photos gr?ce ? Sportograf88.199PAVIE Yannick32FRAHAGUENAU18:31:4818:32:1613:06 4.59269HAGUENAU
Vos photos gr?ce ? Sportograf89.294ADDA Norman28FRAPARIS-11E-ARRONDISSEMENT18:36:4218:37:1313:09 4.56273PARIS-11E-ARRONDISSEMENT
Vos photos gr?ce ? SportografDSQ248FLEITH Michel38FRAGEISWASSERGEISWASSER
Vos photos gr?ce ? SportografDSQ100HENRY Pierre33FRAREUNION
Vos photos gr?ce ? SportografDSQ119HERVAULT Yves-Marie30FRASTRASBOURGSTRASBOURG
Vos photos gr?ce ? SportografDSQ112MOULIN Marc-André29FRASAINTE-GENEVIÈVE-DES-BOISSAINTE-GENEVIÈVE-DES-BOIS
Vos photos gr?ce ? SportografDSQ304VIARD Loic32FRADOMPAIRE10:15:3210:15:32DOMPAIRE
Vos photos gr?ce ? SportografDSQ17GIOVANELLI Florent37FRAHOUTAUD12:10:1912:10:29HOUTAUD
Vos photos gr?ce ? SportografDSQ61HEDA Cédric37FRAPOITIERS12:12:3512:12:44POITIERS
Vos photos gr?ce ? SportografDSQ38RIEDER Oliver38GERGRENZACH-WYHLEN14:27:0014:27:29GRENZACH-WYHLEN
Vos photos gr?ce ? SportografDSQ337STERNAT Alban39FRACOURBEVOIE14:27:2814:27:30COURBEVOIE
Vos photos gr?ce ? SportografDSQ39GUTTENBERG Gregor37GERFREIBURG IM BREISGAU14:27:0314:27:31FREIBURG IM BREISGAU
Vos photos gr?ce ? SportografDNF362BRILLATZ Joan31FRAMUNSTERMUNSTER
Vos photos gr?ce ? SportografDNF204MORET Stéphane38FRABARTBART
Vos photos gr?ce ? SportografDNF144PLU Johan25FRACOMBS-LA-VILLECOMBS-LA-VILLE
DNF: did not finish; DSQ: disqualified; Speed in km/h
Page: [1]